Stündliche Wetter Kyselykha

Heute, 25 Januar, Montag

Zeit Temperatur Niederschläge Wind Luftdruck Luftfeuchtigkeit
00:00 -1°C° 0.3 mm 7 m/S 744 mmHg 86%
01:00 -1°C° 0.3 mm 7 m/S 744 mmHg 89%
02:00 -1°C° 0 mm 6 m/S 744 mmHg 89%
03:00 -1°C° 0.1 mm 6 m/S 744 mmHg 91%
04:00 -1°C° 0.1 mm 6 m/S 743 mmHg 92%
05:00 -1°C° 0.1 mm 6 m/S 743 mmHg 94%
06:00 +1°C° 0 mm 6 m/S 743 mmHg 95%
07:00 +1°C° 0 mm 6 m/S 743 mmHg 95%
08:00 +1°C° 0 mm 6 m/S 743 mmHg 95%
09:00 +2°C° 0 mm 6 m/S 743 mmHg 95%
10:00 +2°C° 0 mm 6 m/S 743 mmHg 94%
11:00 +3°C° 0 mm 6 m/S 743 mmHg 93%
12:00 +4°C° 0 mm 6 m/S 743 mmHg 91%
13:00 +4°C° 0 mm 6 m/S 742 mmHg 89%
14:00 +5°C° 0 mm 7 m/S 741 mmHg 86%
15:00 +5°C° 0 mm 7 m/S 741 mmHg 86%
16:00 +5°C° 0 mm 7 m/S 741 mmHg 86%
17:00 +5°C° 0 mm 7 m/S 741 mmHg 85%
18:00 +5°C° 0.1 mm 7 m/S 741 mmHg 85%
19:00 +5°C° 0.1 mm 7 m/S 740 mmHg 85%
20:00 +5°C° 0.1 mm 8 m/S 740 mmHg 85%
21:00 +4°C° 0 mm 8 m/S 739 mmHg 83%
22:00 +3°C° 0 mm 9 m/S 739 mmHg 80%
23:00 +3°C° 0 mm 9 m/S 738 mmHg 78%

Morgen, 26 Januar, Dienstag

Zeit Temperatur Niederschläge Wind Luftdruck Luftfeuchtigkeit
00:00 +3°C° 0.2 mm 10 m/S 738 mmHg 80%
01:00 +3°C° 0.2 mm 10 m/S 737 mmHg 83%
02:00 +3°C° 0.2 mm 10 m/S 736 mmHg 85%
03:00 +3°C° 0.8 mm 9 m/S 736 mmHg 86%
04:00 +4°C° 0.8 mm 8 m/S 736 mmHg 87%
05:00 +2°C° 0.8 mm 8 m/S 737 mmHg 88%
06:00 +2°C° 0.1 mm 8 m/S 738 mmHg 84%
07:00 +1°C° 0.1 mm 8 m/S 738 mmHg 79%
08:00 0°C° 0.1 mm 9 m/S 739 mmHg 75%
09:00 0°C° 0 mm 9 m/S 740 mmHg 72%
10:00 0°C° 0 mm 9 m/S 741 mmHg 69%
11:00 0°C° 0 mm 9 m/S 742 mmHg 67%
12:00 0°C° 0 mm 8 m/S 742 mmHg 68%
13:00 0°C° 0 mm 8 m/S 742 mmHg 68%
14:00 0°C° 0 mm 8 m/S 742 mmHg 69%
15:00 -1°C° 0.8 mm 6 m/S 742 mmHg 78%
16:00 0°C° 0.8 mm 5 m/S 742 mmHg 88%
17:00 -1°C° 0.8 mm 4 m/S 742 mmHg 97%
18:00 0°C° 0.6 mm 3 m/S 743 mmHg 96%
19:00 0°C° 0.6 mm 3 m/S 743 mmHg 96%
20:00 0°C° 0.6 mm 3 m/S 743 mmHg 95%
21:00 -1°C° 0 mm 2 m/S 743 mmHg 95%
22:00 -1°C° 0 mm 2 m/S 744 mmHg 94%
23:00 -1°C° 0 mm 2 m/S 744 mmHg 94%

übermorgen, 27 Januar, Mittwoch

Zeit Temperatur Niederschläge Wind Luftdruck Luftfeuchtigkeit
00:00 +1°C° 0 mm 1 m/S 744 mmHg 93%
01:00 +1°C° 0 mm 1 m/S 744 mmHg 91%
02:00 +1°C° 0 mm 1 m/S 744 mmHg 89%
03:00 +1°C° 0 mm 1 m/S 744 mmHg 88%
04:00 +1°C° 0 mm 1 m/S 744 mmHg 86%
05:00 +1°C° 0 mm 1 m/S 744 mmHg 85%
06:00 +1°C° 0 mm 1 m/S 744 mmHg 85%
07:00 +1°C° 0 mm 1 m/S 744 mmHg 84%
08:00 -1°C° 0 mm 2 m/S 744 mmHg 84%
09:00 -1°C° 0.1 mm 2 m/S 744 mmHg 85%
10:00 -1°C° 0.1 mm 3 m/S 744 mmHg 85%
11:00 0°C° 0.1 mm 3 m/S 744 mmHg 86%
12:00 -1°C° 0.2 mm 4 m/S 743 mmHg 88%
13:00 -1°C° 0.2 mm 4 m/S 743 mmHg 90%
14:00 -1°C° 0.2 mm 4 m/S 742 mmHg 92%
15:00 -1°C° 0.6 mm 4 m/S 742 mmHg 93%
16:00 -1°C° 0.6 mm 4 m/S 742 mmHg 95%
17:00 -1°C° 0.6 mm 4 m/S 741 mmHg 97%
18:00 0°C° 0.1 mm 4 m/S 741 mmHg 96%
19:00 0°C° 0.1 mm 4 m/S 741 mmHg 96%
20:00 +1°C° 0.1 mm 4 m/S 740 mmHg 95%
21:00 +1°C° 0.1 mm 4 m/S 740 mmHg 93%
22:00 +1°C° 0.1 mm 4 m/S 740 mmHg 91%
23:00 +1°C° 0.1 mm 4 m/S 740 mmHg 90%

28 Januar, Donnerstag

Zeit Temperatur Niederschläge Wind Luftdruck Luftfeuchtigkeit
00:00 +1°C° 0 mm 4 m/S 739 mmHg 89%
01:00 +1°C° 0 mm 4 m/S 739 mmHg 88%
02:00 +1°C° 0 mm 4 m/S 739 mmHg 87%
03:00 +1°C° 0 mm 3 m/S 739 mmHg 88%
04:00 +1°C° 0 mm 3 m/S 738 mmHg 89%
05:00 +1°C° 0 mm 3 m/S 738 mmHg 90%
06:00 +1°C° 0.3 mm 3 m/S 738 mmHg 92%
07:00 +1°C° 0.3 mm 3 m/S 738 mmHg 93%
08:00 +1°C° 0.3 mm 3 m/S 738 mmHg 95%
09:00 +1°C° 0.8 mm 3 m/S 738 mmHg 96%
10:00 +1°C° 0.8 mm 3 m/S 738 mmHg 97%
11:00 +1°C° 0.8 mm 3 m/S 738 mmHg 97%
12:00 +2°C° 0.4 mm 2 m/S 738 mmHg 97%
13:00 +2°C° 0.4 mm 2 m/S 738 mmHg 97%
14:00 +2°C° 0.4 mm 2 m/S 737 mmHg 96%
15:00 +3°C° 0.3 mm 1 m/S 738 mmHg 96%
16:00 +3°C° 0.3 mm 1 m/S 738 mmHg 95%
17:00 +3°C° 0.3 mm 1 m/S 738 mmHg 94%
18:00 +3°C° 0 mm 1 m/S 738 mmHg 93%
19:00 +3°C° 0 mm 1 m/S 738 mmHg 93%
20:00 +3°C° 0 mm 1 m/S 739 mmHg 93%
21:00 +3°C° 0 mm 1 m/S 739 mmHg 94%
22:00 +2°C° 0 mm 2 m/S 739 mmHg 95%
23:00 +1°C° 0 mm 2 m/S 739 mmHg 96%

29 Januar, Freitag

Zeit Temperatur Niederschläge Wind Luftdruck Luftfeuchtigkeit
00:00 +1°C° 0 mm 2 m/S 740 mmHg 95%
01:00 +1°C° 0 mm 2 m/S 740 mmHg 95%
02:00 -1°C° 0 mm 2 m/S 740 mmHg 95%
03:00 -1°C° 0 mm 2 m/S 740 mmHg 95%
04:00 -1°C° 0 mm 2 m/S 741 mmHg 95%
05:00 +1°C° 0 mm 1 m/S 741 mmHg 95%
06:00 +1°C° 0 mm 1 m/S 741 mmHg 94%
07:00 +1°C° 0 mm 1 m/S 742 mmHg 94%
08:00 +1°C° 0 mm 1 m/S 742 mmHg 94%
09:00 +1°C° 0 mm 1 m/S 742 mmHg 92%
10:00 +2°C° 0 mm 1 m/S 742 mmHg 90%
11:00 +2°C° 0 mm 1 m/S 742 mmHg 88%
12:00 +2°C° 0 mm 1 m/S 742 mmHg 87%
13:00 +2°C° 0 mm 1 m/S 742 mmHg 86%
14:00 +3°C° 0 mm 1 m/S 742 mmHg 85%
15:00 +2°C° 0 mm 1 m/S 741 mmHg 86%
16:00 +2°C° 0 mm 1 m/S 741 mmHg 87%
17:00 +2°C° 0 mm 1 m/S 741 mmHg 88%
18:00 +2°C° 0 mm 1 m/S 741 mmHg 85%
19:00 +1°C° 0 mm 2 m/S 741 mmHg 82%
20:00 +1°C° 0 mm 2 m/S 741 mmHg 80%
21:00 +1°C° 0 mm 2 m/S 740 mmHg 79%
22:00 +1°C° 0 mm 2 m/S 740 mmHg 79%
23:00 +1°C° 0 mm 2 m/S 740 mmHg 78%

30 Januar, Samstag

Zeit Temperatur Niederschläge Wind Luftdruck Luftfeuchtigkeit
00:00 -1°C° 0 mm 2 m/S 739 mmHg 79%
01:00 -1°C° 0 mm 2 m/S 739 mmHg 81%
02:00 -1°C° 0 mm 3 m/S 738 mmHg 82%
03:00 -2°C° 0 mm 3 m/S 738 mmHg 84%
04:00 -2°C° 0 mm 3 m/S 738 mmHg 87%
05:00 -2°C° 0 mm 3 m/S 737 mmHg 89%
06:00 -2°C° 0 mm 3 m/S 737 mmHg 89%
07:00 -3°C° 0 mm 4 m/S 737 mmHg 89%
08:00 -3°C° 0 mm 4 m/S 737 mmHg 88%
09:00 -2°C° 0 mm 4 m/S 737 mmHg 86%
10:00 -2°C° 0 mm 5 m/S 736 mmHg 83%
11:00 -1°C° 0 mm 5 m/S 736 mmHg 81%
12:00 -1°C° 0 mm 5 m/S 736 mmHg 85%
13:00 -1°C° 0 mm 5 m/S 736 mmHg 89%
14:00 -1°C° 0 mm 5 m/S 735 mmHg 94%
15:00 -1°C° 0 mm 5 m/S 736 mmHg 95%
16:00 -1°C° 0 mm 4 m/S 736 mmHg 96%
17:00 0°C° 0 mm 3 m/S 736 mmHg 97%
18:00 -1°C° 0 mm 4 m/S 736 mmHg 97%
19:00 -1°C° 0 mm 4 m/S 736 mmHg 97%
20:00 0°C° 0 mm 4 m/S 736 mmHg 96%
21:00 -1°C° 0 mm 4 m/S 737 mmHg 96%
22:00 0°C° 0 mm 3 m/S 737 mmHg 96%
23:00 0°C° 0 mm 3 m/S 737 mmHg 96%
Mehr zeigen

Wir brauchen deine Erlaubnis

Meteoprog und unser Service Anbieter werden persönliche Daten aufbewahren, so wie Cookies, Geräte Bezeichnung oder ähnliche Technologien von deinem Gerät und Prozess, so wie Persönliche Daten Inhalte und Werbungen, genauso wie social Media und den Verkehr zu analysieren.

  • Aufbewahrung und/oder Zugang zu deiner Geräte Informationen.

    Cookies, Geräte Bezeichnung oder andere Informationen, können aufbewahrt oder Zugang zu deinem Gerät erhalten, für den Grund, der oben angegeben wird.

  • Personalisierte Werbung und Inhalte, Messungen, Einblick in das Publikum und Produkt Entwicklung.

    Werbungen und Inhalte können personalisiert werden, basierend auf ein Profil. Mehr Daten können besser personalisierte Werbungen und Inhalte hinzufügen. Werbung und Inhalte können gezeigt und gemessen werden. Einblicke über das Publikum, welche die Werbung gesehen haben und den Inhalt, können abgeleitet werden. So wie Daten können genutzt werden, um es zu verbessern oder die Benutzer Erfahrung zu verbessern das System und die Software.

Wenn du “Ich stimme zu” klickst, erlaubst du uns, die Cookies zu benutzen die Geräte Bezeichnung, den Web oder ähnliche Technologien zu benutzen. Deine Settings, können in deinem Gerät bei deinem Browser geändert werden.

Für den bestimmten Zweck, berechtigten Interessen beruhen darauf, mehr als auf den Inhalt. Du kannst mehr darüber in unseren Privaten und Cookie Politik lesen.